Weather History for KFEP - March, 2012

Change the Weather History Date:

Sunday, March 11, 2012

  Actual Average Record
Temperature  
Mean Temperature 48 °F -  
Max Temperature 63 °F 42 °F 64 °F (1977)
Min Temperature 34 °F 22 °F 2 °F (1979)
Degree Days  
Heating Degree Days 16    
Moisture  
Dew Point 29 °F    
Average Humidity 50    
Maximum Humidity 79    
Minimum Humidity 22    
Precipitation  
Precipitation 0.00 in - - ()
Sea Level Pressure  
Sea Level Pressure 30.16 in    
Wind  
Wind Speed 12 mph (SSE)    
Max Wind Speed 18 mph    
Max Gust Speed 23 mph    
Visibility 10 miles    
Events      
Averages and records for this station are not official NWS values.
T = Trace of Precipitation, MM = Missing Value Source: NWS Daily Summary

Daily Weather History Graph

Daily Weather History Graph

Search for Another Location

Airport or City:

Trip Planner

Search our weather history database for the weather conditions in past years. The results will help you decide how hot, cold, wet, or windy it might be!

Date:

Astronomy

Mar. 11, 2012 Rise Set
Actual Time 7:16 AM CDT 7:00 PM CDT
Civil Twilight 6:48 AM CDT 7:28 PM CDT
Nautical Twilight 6:15 AM CDT 8:01 PM CDT
Astronomical Twilight 5:43 AM CDT 8:34 PM CDT
Moon 11:31 PM CDT (3/11) 8:46 AM CDT (3/11)
Length of Visible Light 12h 40m
Length of Day
11h 44m
Waning Gibbous, 85% of the Moon is Illuminated
Mar 11
Waning Gibbous
Mar 14
Last Quarter
Mar 22
New
Mar 30
First Quarter
Apr 6
Full

Hourly Weather History & Observations

Time (CDT) Temp. Windchill Dew Point Humidity Pressure Visibility Wind Dir Wind Speed Gust Speed Precip Events Conditions
12:15 AM 41.9 °F 34.6 °F 27.5 °F 57% 30.19 in 10.0 mi South 13.8 mph - N/A   Clear
12:35 AM 41.9 °F 34.3 °F 28.2 °F 58% 30.19 in 10.0 mi South 15.0 mph - N/A   Clear
12:55 AM 41.9 °F 34.3 °F 28.4 °F 59% 30.20 in 10.0 mi South 15.0 mph - N/A   Clear
1:15 AM 39.7 °F 32.7 °F 27.7 °F 62% 30.20 in 10.0 mi South 11.5 mph - N/A   Clear
1:35 AM 39.2 °F 31.6 °F 28.4 °F 65% 30.20 in 10.0 mi South 12.7 mph - N/A   Clear
1:55 AM 39.2 °F 31.2 °F 28.4 °F 65% 30.20 in 10.0 mi South 13.8 mph - N/A   Clear
3:15 AM 39.2 °F 31.2 °F 28.4 °F 65% 30.20 in 10.0 mi South 13.8 mph - N/A   Clear
3:35 AM 39.2 °F 32.0 °F 28.9 °F 67% 30.20 in 10.0 mi South 11.5 mph - N/A   Clear
3:55 AM 39.2 °F 31.2 °F 29.1 °F 67% 30.19 in 10.0 mi South 13.8 mph - N/A   Clear
4:15 AM 39.2 °F 32.0 °F 29.1 °F 67% 30.19 in 10.0 mi South 11.5 mph - N/A   Clear
4:35 AM 37.2 °F 31.9 °F 28.6 °F 71% 30.19 in 10.0 mi South 6.9 mph - N/A   Clear
4:55 AM 37.4 °F 30.8 °F 28.4 °F 70% 30.19 in 10.0 mi South 9.2 mph - N/A   Clear
5:15 AM 36.7 °F 29.9 °F 29.1 °F 74% 30.20 in 10.0 mi South 9.2 mph - N/A   Clear
5:35 AM 36.7 °F 30.5 °F 29.7 °F 76% 30.20 in 10.0 mi SSE 8.1 mph - N/A   Clear
5:55 AM 34.2 °F 29.0 °F 28.2 °F 79% 30.20 in 10.0 mi SSE 5.8 mph - N/A   Clear
6:15 AM 34.2 °F 28.2 °F 27.7 °F 77% 30.21 in 10.0 mi SSE 6.9 mph - N/A   Clear
6:35 AM 34.2 °F 27.5 °F 28.2 °F 79% 30.21 in 10.0 mi SSE 8.1 mph - N/A   Clear
6:55 AM 34.2 °F 28.2 °F 28.2 °F 79% 30.21 in 10.0 mi SSE 6.9 mph - N/A   Clear
7:15 AM 34.2 °F 28.2 °F 28.2 °F 79% 30.21 in 10.0 mi SSE 6.9 mph - N/A   Clear
7:35 AM 34.2 °F 30.0 °F 28.2 °F 79% 30.22 in 10.0 mi South 4.6 mph - N/A   Clear
7:55 AM 36.7 °F 31.2 °F 28.9 °F 74% 30.22 in 10.0 mi South 6.9 mph - N/A   Clear
8:15 AM 38.1 °F 30.2 °F 29.3 °F 71% 30.22 in 10.0 mi South 12.7 mph - N/A   Clear
8:35 AM 39.2 °F 31.6 °F 29.1 °F 67% 30.22 in 10.0 mi South 12.7 mph - N/A   Clear
8:55 AM 42.8 °F 37.0 °F 30.2 °F 61% 30.23 in 10.0 mi South 10.4 mph - N/A   Clear
9:15 AM 43.5 °F 37.9 °F 29.8 °F 59% 30.23 in 10.0 mi South 10.4 mph - N/A   Clear
9:35 AM 45.5 °F 40.8 °F 29.8 °F 54% 30.23 in 10.0 mi South 9.2 mph - N/A   Clear
9:55 AM 49.5 °F - 28.9 °F 45% 30.23 in 10.0 mi South 10.4 mph - N/A   Clear
10:15 AM 52.0 °F - 30.6 °F 44% 30.23 in 10.0 mi South 11.5 mph - N/A   Clear
10:35 AM 52.0 °F - 30.2 °F 43% 30.23 in 10.0 mi South 10.4 mph - N/A   Clear
10:55 AM 53.2 °F - 27.5 °F 37% 30.23 in 10.0 mi South 10.4 mph - N/A   Clear
11:15 AM 55.2 °F - 27.0 °F 34% 30.23 in 10.0 mi South 8.1 mph - N/A   Clear
11:35 AM 57.2 °F - 29.5 °F 35% 30.22 in 10.0 mi South 10.4 mph - N/A   Clear
11:55 AM 57.2 °F - 28.4 °F 33% 30.21 in 10.0 mi SSE 11.5 mph - N/A   Clear
12:15 PM 57.2 °F - 29.5 °F 35% 30.21 in 10.0 mi SE 9.2 mph - N/A   Clear
12:35 PM 58.1 °F - 26.8 °F 30% 30.20 in 10.0 mi SSE 9.2 mph - N/A   Clear
1:15 PM 59.5 °F - 24.3 °F 26% 30.19 in 10.0 mi SSE 10.4 mph - N/A   Clear
1:35 PM 59.5 °F - 25.7 °F 27% 30.19 in 10.0 mi South 10.4 mph - N/A   Clear
1:55 PM 59.5 °F - 25.2 °F 27% 30.18 in 10.0 mi SSE 15.0 mph - N/A   Clear
2:15 PM 60.8 °F - 23.0 °F 23% 30.17 in 10.0 mi SSE 16.1 mph 19.6 mph N/A   Clear
2:35 PM 59.5 °F - 24.3 °F 26% 30.16 in 10.0 mi South 13.8 mph 18.4 mph N/A   Clear
2:55 PM 60.8 °F - 24.8 °F 25% 30.14 in 10.0 mi SSE 13.8 mph 17.3 mph N/A   Clear
3:15 PM 61.9 °F - 26.6 °F 26% 30.14 in 10.0 mi SSE 12.7 mph - N/A   Clear
3:35 PM 62.1 °F - 22.3 °F 22% 30.12 in 10.0 mi SSE 17.3 mph 20.7 mph N/A   Clear
3:55 PM 62.1 °F - 23.2 °F 23% 30.10 in 10.0 mi SSE 13.8 mph - N/A   Clear
4:15 PM 62.1 °F - 23.9 °F 23% 30.09 in 10.0 mi SSE 12.7 mph - N/A   Clear
4:35 PM 63.5 °F - 23.4 °F 22% 30.08 in 10.0 mi SE 16.1 mph - N/A   Clear
4:55 PM 62.1 °F - 23.0 °F 22% 30.08 in 10.0 mi SSE 15.0 mph 23.0 mph N/A   Clear
5:15 PM 62.1 °F - 23.2 °F 23% 30.08 in 10.0 mi SE 15.0 mph 20.7 mph N/A   Clear
5:35 PM 62.1 °F - 24.6 °F 24% 30.08 in 10.0 mi SE 16.1 mph - N/A   Clear
5:55 PM 60.8 °F - 30.2 °F 31% 30.07 in 10.0 mi SSE 12.7 mph - N/A   Clear
6:15 PM 59.5 °F - 31.5 °F 35% 30.07 in 10.0 mi SE 9.2 mph - N/A   Clear
6:35 PM 57.2 °F - 31.3 °F 37% 30.06 in 10.0 mi SE 9.2 mph - N/A   Clear
6:55 PM 57.2 °F - 32.0 °F 38% 30.05 in 10.0 mi ESE 5.8 mph - N/A   Clear
7:15 PM 52.0 °F - 34.5 °F 51% 30.05 in 10.0 mi ESE 8.1 mph - N/A   Scattered Clouds
7:35 PM 52.2 °F - 35.4 °F 53% 30.04 in 10.0 mi East 6.9 mph - N/A   Overcast
7:55 PM 54.5 °F - 37.4 °F 52% 30.03 in 10.0 mi ESE 8.1 mph - N/A   Overcast
8:15 PM 57.2 °F - 40.3 °F 53% 30.03 in 10.0 mi ESE 8.1 mph - N/A   Overcast
8:35 PM 57.2 °F - 40.5 °F 54% 30.02 in 10.0 mi ESE 11.5 mph - N/A   Overcast
8:55 PM 57.7 °F - 40.8 °F 53% 30.01 in 10.0 mi SE 18.4 mph - N/A   Overcast
9:15 PM 57.2 °F - 41.0 °F 55% 30.01 in 10.0 mi SE 13.8 mph - N/A   Overcast
9:35 PM 57.2 °F - 41.2 °F 55% 30.00 in 10.0 mi SE 17.3 mph 21.9 mph N/A   Overcast
9:55 PM 57.2 °F - 41.4 °F 55% 29.99 in 10.0 mi SE 16.1 mph - N/A   Overcast
10:15 PM 57.2 °F - 43.3 °F 60% 30.00 in 10.0 mi SE 23.0 mph 28.8 mph N/A   Overcast
10:35 PM 54.0 °F - 44.4 °F 70% 29.99 in 10.0 mi SE 25.3 mph 33.4 mph N/A   Light Drizzle
10:55 PM 52.0 °F - 45.0 °F 77% 29.99 in 7.0 mi SE 21.9 mph 31.1 mph N/A   Light Drizzle
11:15 PM 52.0 °F - 46.6 °F 82% 29.99 in 7.0 mi SE 21.9 mph 31.1 mph N/A Rain Light Rain
11:35 PM 52.0 °F - 47.3 °F 84% 29.98 in 7.0 mi SE 20.7 mph 27.6 mph 0.01 in Rain Light Rain
11:55 PM 52.0 °F - 47.3 °F 84% 29.97 in 10.0 mi SE 24.2 mph 31.1 mph 0.01 in   Overcast
12:15 AM 51.6 °F - 47.7 °F 86% 29.96 in 10.0 mi SE 18.4 mph 25.3 mph 0.01 in   Light Drizzle
12:35 AM 49.5 °F - 46.0 °F 88% 29.94 in 7.0 mi ESE 17.3 mph 25.3 mph 0.02 in Rain Light Rain
12:55 AM 49.5 °F - 46.0 °F 88% 29.92 in 10.0 mi SE 18.4 mph 24.2 mph 0.03 in Rain Light Rain